Volver al catálogo

ONEWEB-0629

ActivoComunicacionesPO
NORAD 55170·PAYLOAD·🇬🇧 United Kingdom

Lanzado Jan 10, 2023 desde Cape Canaveral Space Force Station

Loading…

Próximos Pases (próximas 24 horas)

TLE

ActualizadoSource: CelesTrak SupGP

Época: Sep 14, 2026, 08:15 UTC

1 55170C 23004AG  26257.34424026 -.00002414  00000+0 -60806-2 0  2575
2 55170  87.9203 348.1615 0002184 103.1843 312.6563 13.19252574    18

Sigue ONEWEB-0629 en tiempo real con AllMySat

Download on the App Store